Year,Month,Day,Hour,Minute,Value (Times are PST for temperature in C)
2019,10,28,00,00,2.60
2019,10,28,00,01,2.60
2019,10,28,00,02,2.50
2019,10,28,00,03,2.50
2019,10,28,00,04,2.40
2019,10,28,00,05,2.40
2019,10,28,00,06,2.30
2019,10,28,00,07,2.30
2019,10,28,00,08,2.20
2019,10,28,00,09,2.20
2019,10,28,00,10,2.20
2019,10,28,00,11,2.20
2019,10,28,00,12,2.30
2019,10,28,00,13,2.30
2019,10,28,00,14,2.20
2019,10,28,00,15,2.30
2019,10,28,00,16,2.30
2019,10,28,00,17,2.20
2019,10,28,00,18,2.20
2019,10,28,00,19,2.20
2019,10,28,00,20,2.20
2019,10,28,00,21,2.20
2019,10,28,00,22,2.20
2019,10,28,00,23,2.20
2019,10,28,00,24,2.20
2019,10,28,00,25,2.20
2019,10,28,00,26,2.10
2019,10,28,00,27,2.10
2019,10,28,00,28,2.10
2019,10,28,00,29,2.10
2019,10,28,00,30,2.10
2019,10,28,00,31,2.00
2019,10,28,00,32,2.00
2019,10,28,00,33,2.00
2019,10,28,00,34,1.90
2019,10,28,00,35,1.90
2019,10,28,00,36,1.90
2019,10,28,00,37,1.90
2019,10,28,00,38,1.90
2019,10,28,00,39,1.90
2019,10,28,00,40,1.90
2019,10,28,00,41,1.90
2019,10,28,00,42,1.90
2019,10,28,00,43,1.90
2019,10,28,00,44,1.90
2019,10,28,00,45,1.90
2019,10,28,00,46,2.00
2019,10,28,00,47,1.90
2019,10,28,00,48,1.90
2019,10,28,00,49,1.90
2019,10,28,00,50,1.90
2019,10,28,00,51,1.90
2019,10,28,00,52,1.90
2019,10,28,00,53,1.90
2019,10,28,00,54,1.80
2019,10,28,00,55,1.80
2019,10,28,00,56,1.80
2019,10,28,00,57,1.80
2019,10,28,00,58,1.80
2019,10,28,00,59,1.80
2019,10,28,01,00,1.80
2019,10,28,01,01,1.80
2019,10,28,01,02,1.90
2019,10,28,01,03,1.90
2019,10,28,01,04,1.90
2019,10,28,01,05,1.90
2019,10,28,01,06,1.90
2019,10,28,01,07,1.90
2019,10,28,01,08,1.90
2019,10,28,01,09,1.90
2019,10,28,01,10,1.90
2019,10,28,01,11,1.90
2019,10,28,01,12,1.90
2019,10,28,01,13,1.90
2019,10,28,01,14,1.90
2019,10,28,01,15,1.90
2019,10,28,01,16,2.00
2019,10,28,01,17,1.90
2019,10,28,01,18,1.90
2019,10,28,01,19,1.90
2019,10,28,01,20,1.90
2019,10,28,01,21,1.90
2019,10,28,01,22,1.90
2019,10,28,01,23,1.90
2019,10,28,01,24,1.90
2019,10,28,01,25,1.90
2019,10,28,01,26,1.80
2019,10,28,01,27,1.80
2019,10,28,01,28,1.80
2019,10,28,01,29,1.80
2019,10,28,01,30,1.80
2019,10,28,01,31,1.80
2019,10,28,01,32,1.80
2019,10,28,01,33,1.80
2019,10,28,01,34,1.80
2019,10,28,01,35,1.80
2019,10,28,01,36,1.80
2019,10,28,01,37,1.80
2019,10,28,01,38,1.80
2019,10,28,01,39,1.80
2019,10,28,01,40,1.80
2019,10,28,01,41,1.80
2019,10,28,01,42,1.80
2019,10,28,01,43,1.70
2019,10,28,01,44,1.70
2019,10,28,01,45,1.70
2019,10,28,01,46,1.70
2019,10,28,01,47,1.70
2019,10,28,01,48,1.70
2019,10,28,01,49,1.70
2019,10,28,01,50,1.70
2019,10,28,01,51,1.70
2019,10,28,01,52,1.70
2019,10,28,01,53,1.70
2019,10,28,01,54,1.70
2019,10,28,01,55,1.70
2019,10,28,01,56,1.80
2019,10,28,01,57,1.80
2019,10,28,01,58,1.80
2019,10,28,01,59,1.80
2019,10,28,02,00,1.80
2019,10,28,02,01,1.80
2019,10,28,02,02,1.80
2019,10,28,02,03,1.80
2019,10,28,02,04,1.80
2019,10,28,02,05,1.80
2019,10,28,02,06,1.80
2019,10,28,02,07,1.90
2019,10,28,02,08,1.90
2019,10,28,02,09,1.90
2019,10,28,02,10,1.90
2019,10,28,02,11,1.90
2019,10,28,02,12,1.90
2019,10,28,02,13,1.90
2019,10,28,02,14,1.90
2019,10,28,02,15,1.90
2019,10,28,02,16,1.80
2019,10,28,02,17,1.80
2019,10,28,02,18,1.80
2019,10,28,02,19,1.80
2019,10,28,02,20,1.80
2019,10,28,02,21,1.70
2019,10,28,02,22,1.70
2019,10,28,02,23,1.70
2019,10,28,02,24,1.70
2019,10,28,02,25,1.70
2019,10,28,02,26,1.70
2019,10,28,02,27,1.70
2019,10,28,02,28,1.70
2019,10,28,02,29,1.70
2019,10,28,02,30,1.80
2019,10,28,02,31,1.80
2019,10,28,02,32,1.80
2019,10,28,02,33,1.80
2019,10,28,02,34,1.80
2019,10,28,02,35,1.80
2019,10,28,02,36,1.80
2019,10,28,02,37,1.70
2019,10,28,02,38,1.70
2019,10,28,02,39,1.70
2019,10,28,02,40,1.70
2019,10,28,02,41,1.70
2019,10,28,02,42,1.70
2019,10,28,02,43,1.70
2019,10,28,02,44,1.80
2019,10,28,02,45,1.80
2019,10,28,02,46,1.80
2019,10,28,02,47,1.70
2019,10,28,02,48,1.70
2019,10,28,02,49,1.70
2019,10,28,02,50,1.70
2019,10,28,02,51,1.70
2019,10,28,02,52,1.60
2019,10,28,02,53,1.60
2019,10,28,02,54,1.60
2019,10,28,02,55,1.60
2019,10,28,02,56,1.60
2019,10,28,02,57,1.60
2019,10,28,02,58,1.60
2019,10,28,02,59,1.60
2019,10,28,03,00,1.50
2019,10,28,03,01,1.50
2019,10,28,03,02,1.50
2019,10,28,03,03,1.40
2019,10,28,03,04,1.40
2019,10,28,03,05,1.40
2019,10,28,03,06,1.40
2019,10,28,03,07,1.40
2019,10,28,03,08,1.40
2019,10,28,03,09,1.40
2019,10,28,03,10,1.40
2019,10,28,03,11,1.40
2019,10,28,03,12,1.40
2019,10,28,03,13,1.40
2019,10,28,03,14,1.40
2019,10,28,03,15,1.40
2019,10,28,03,16,1.40
2019,10,28,03,17,1.40
2019,10,28,03,18,1.40
2019,10,28,03,19,1.40
2019,10,28,03,20,1.40
2019,10,28,03,21,1.40
2019,10,28,03,22,1.40
2019,10,28,03,23,1.40
2019,10,28,03,24,1.40
2019,10,28,03,25,1.40
2019,10,28,03,26,1.40
2019,10,28,03,27,1.40
2019,10,28,03,28,1.40
2019,10,28,03,29,1.40
2019,10,28,03,30,1.40
2019,10,28,03,31,1.40
2019,10,28,03,32,1.40
2019,10,28,03,33,1.40
2019,10,28,03,34,1.40
2019,10,28,03,35,1.40
2019,10,28,03,36,1.30
2019,10,28,03,37,1.30
2019,10,28,03,38,1.30
2019,10,28,03,39,1.30
2019,10,28,03,40,1.20
2019,10,28,03,41,1.20
2019,10,28,03,42,1.20
2019,10,28,03,43,1.20
2019,10,28,03,44,1.20
2019,10,28,03,45,1.20
2019,10,28,03,46,1.20
2019,10,28,03,47,1.20
2019,10,28,03,48,1.20
2019,10,28,03,49,1.20
2019,10,28,03,50,1.20
2019,10,28,03,51,1.20
2019,10,28,03,52,1.30
2019,10,28,03,53,1.30
2019,10,28,03,54,1.30
2019,10,28,03,55,1.20
2019,10,28,03,56,1.20
2019,10,28,03,57,1.20
2019,10,28,03,58,1.20
2019,10,28,03,59,1.20
2019,10,28,04,00,1.20
2019,10,28,04,01,1.20
2019,10,28,04,02,1.20
2019,10,28,04,03,1.20
2019,10,28,04,04,1.20
2019,10,28,04,05,1.20
2019,10,28,04,06,1.20
2019,10,28,04,07,1.20
2019,10,28,04,08,1.20
2019,10,28,04,09,1.20
2019,10,28,04,10,1.20
2019,10,28,04,11,1.20
2019,10,28,04,12,1.20
2019,10,28,04,13,1.20
2019,10,28,04,14,1.10
2019,10,28,04,15,1.10
2019,10,28,04,16,1.10
2019,10,28,04,17,1.10
2019,10,28,04,18,1.10
2019,10,28,04,19,1.10
2019,10,28,04,20,1.20
2019,10,28,04,21,1.20
2019,10,28,04,22,1.20
2019,10,28,04,23,1.20
2019,10,28,04,24,1.20
2019,10,28,04,25,1.20
2019,10,28,04,26,1.20
2019,10,28,04,27,1.20
2019,10,28,04,28,1.20
2019,10,28,04,29,1.20
2019,10,28,04,30,1.20
2019,10,28,04,31,1.20
2019,10,28,04,32,1.20
2019,10,28,04,33,1.20
2019,10,28,04,34,1.20
2019,10,28,04,35,1.20
2019,10,28,04,36,1.10
2019,10,28,04,37,1.10
2019,10,28,04,38,1.10
2019,10,28,04,39,1.10
2019,10,28,04,40,1.00
2019,10,28,04,41,1.00
2019,10,28,04,42,0.90
2019,10,28,04,43,0.90
2019,10,28,04,44,0.90
2019,10,28,04,45,0.90
2019,10,28,04,46,0.80
2019,10,28,04,47,0.80
2019,10,28,04,48,0.90
2019,10,28,04,49,0.90
2019,10,28,04,50,0.90
2019,10,28,04,51,0.90
2019,10,28,04,52,0.90
2019,10,28,04,53,0.90
2019,10,28,04,54,0.90
2019,10,28,04,55,0.80
2019,10,28,04,56,0.80
2019,10,28,04,57,0.80
2019,10,28,04,58,0.80
2019,10,28,04,59,0.80
2019,10,28,05,00,0.80
2019,10,28,05,01,0.80
2019,10,28,05,02,0.80
2019,10,28,05,03,0.90
2019,10,28,05,04,0.90
2019,10,28,05,05,0.90
2019,10,28,05,06,0.80
2019,10,28,05,07,0.80
2019,10,28,05,08,0.80
2019,10,28,05,09,0.80
2019,10,28,05,10,0.80
2019,10,28,05,11,0.80
2019,10,28,05,12,0.80
2019,10,28,05,13,0.70
2019,10,28,05,14,0.70
2019,10,28,05,15,0.70
2019,10,28,05,16,0.70
2019,10,28,05,17,0.70
2019,10,28,05,18,0.60
2019,10,28,05,19,0.60
2019,10,28,05,20,0.60
2019,10,28,05,21,0.50
2019,10,28,05,22,0.50
2019,10,28,05,23,0.50
2019,10,28,05,24,0.60
2019,10,28,05,25,0.60
2019,10,28,05,26,0.60
2019,10,28,05,27,0.60
2019,10,28,05,28,0.60
2019,10,28,05,29,0.70
2019,10,28,05,30,0.70
2019,10,28,05,31,0.70
2019,10,28,05,32,0.70
2019,10,28,05,33,0.70
2019,10,28,05,34,0.70
2019,10,28,05,35,0.70
2019,10,28,05,36,0.70
2019,10,28,05,37,0.70
2019,10,28,05,38,0.70
2019,10,28,05,39,0.70
2019,10,28,05,40,0.80
2019,10,28,05,41,0.80
2019,10,28,05,42,0.80
2019,10,28,05,43,0.80
2019,10,28,05,44,0.90
2019,10,28,05,45,0.90
2019,10,28,05,46,0.90
2019,10,28,05,47,0.90
2019,10,28,05,48,0.90
2019,10,28,05,49,0.90
2019,10,28,05,50,0.90
2019,10,28,05,51,0.90
2019,10,28,05,52,0.90
2019,10,28,05,53,0.90
2019,10,28,05,54,0.90
2019,10,28,05,55,0.90
2019,10,28,05,56,0.80
2019,10,28,05,57,0.80
2019,10,28,05,58,0.80
2019,10,28,05,59,0.80
2019,10,28,06,00,0.80
2019,10,28,06,01,0.80
2019,10,28,06,02,0.80
2019,10,28,06,03,0.90
2019,10,28,06,04,0.90
2019,10,28,06,05,0.90
2019,10,28,06,06,0.90
2019,10,28,06,07,0.90
2019,10,28,06,08,0.90
2019,10,28,06,09,0.90
2019,10,28,06,10,0.90
2019,10,28,06,11,0.90
2019,10,28,06,12,0.90
2019,10,28,06,13,0.90
2019,10,28,06,14,0.90
2019,10,28,06,15,0.90
2019,10,28,06,16,0.90
2019,10,28,06,17,0.90
2019,10,28,06,18,0.90
2019,10,28,06,19,0.80
2019,10,28,06,20,0.80
2019,10,28,06,21,0.80
2019,10,28,06,22,0.80
2019,10,28,06,23,0.70
2019,10,28,06,24,0.70
2019,10,28,06,25,0.70
2019,10,28,06,26,0.70
2019,10,28,06,27,0.70
2019,10,28,06,28,0.70
2019,10,28,06,29,0.60
2019,10,28,06,30,0.60
2019,10,28,06,31,0.60
2019,10,28,06,32,0.70
2019,10,28,06,33,0.70
2019,10,28,06,34,0.70
2019,10,28,06,35,0.70
2019,10,28,06,36,0.70
2019,10,28,06,37,0.60
2019,10,28,06,38,0.60
2019,10,28,06,39,0.60
2019,10,28,06,40,0.60
2019,10,28,06,41,0.60
2019,10,28,06,42,0.60
2019,10,28,06,43,0.60
2019,10,28,06,44,0.60
2019,10,28,06,45,0.70
2019,10,28,06,46,0.70
2019,10,28,06,47,0.70
2019,10,28,06,48,0.70
2019,10,28,06,49,0.70
2019,10,28,06,50,0.70
2019,10,28,06,51,0.80
2019,10,28,06,52,0.80
2019,10,28,06,53,0.80
2019,10,28,06,54,0.80
2019,10,28,06,55,0.80
2019,10,28,06,56,0.70
2019,10,28,06,57,0.80
2019,10,28,06,58,0.80
2019,10,28,06,59,0.80
2019,10,28,07,00,0.80
2019,10,28,07,01,0.80
2019,10,28,07,02,0.80
2019,10,28,07,03,0.90
2019,10,28,07,04,0.90
2019,10,28,07,05,1.00
2019,10,28,07,06,1.00
2019,10,28,07,07,1.10
2019,10,28,07,08,1.10
2019,10,28,07,09,1.20
2019,10,28,07,10,1.20
2019,10,28,07,11,1.20
2019,10,28,07,12,1.30
2019,10,28,07,13,1.20
2019,10,28,07,14,1.20
2019,10,28,07,15,1.20
2019,10,28,07,16,1.20
2019,10,28,07,17,1.20
2019,10,28,07,18,1.20
2019,10,28,07,19,1.30
2019,10,28,07,20,1.30
2019,10,28,07,21,1.30
2019,10,28,07,22,1.30
2019,10,28,07,23,1.30
2019,10,28,07,24,1.30
2019,10,28,07,25,1.30
2019,10,28,07,26,1.30
2019,10,28,07,27,1.30
2019,10,28,07,28,1.30
2019,10,28,07,29,1.30
2019,10,28,07,30,1.30
2019,10,28,07,31,1.30
2019,10,28,07,32,1.30
2019,10,28,07,33,1.30
2019,10,28,07,34,1.30
2019,10,28,07,35,1.30
2019,10,28,07,36,1.20
2019,10,28,07,37,1.20
2019,10,28,07,38,1.20
2019,10,28,07,39,1.20
2019,10,28,07,40,1.20
2019,10,28,07,41,1.30
2019,10,28,07,42,1.30
2019,10,28,07,43,1.30
2019,10,28,07,44,1.30
2019,10,28,07,45,1.30
2019,10,28,07,46,1.30
2019,10,28,07,47,1.30
2019,10,28,07,48,1.40
2019,10,28,07,49,1.40
2019,10,28,07,50,1.40
2019,10,28,07,51,1.30
2019,10,28,07,52,1.30
2019,10,28,07,53,1.30
2019,10,28,07,54,1.30
2019,10,28,07,55,1.30
2019,10,28,07,56,1.30
2019,10,28,07,57,1.30
2019,10,28,07,58,1.30
2019,10,28,07,59,1.30
2019,10,28,08,00,1.30
2019,10,28,08,01,1.30
2019,10,28,08,02,1.30
2019,10,28,08,03,1.30
2019,10,28,08,04,1.30
2019,10,28,08,05,1.30
2019,10,28,08,06,1.30
2019,10,28,08,07,1.30
2019,10,28,08,08,1.30
2019,10,28,08,09,1.30
2019,10,28,08,10,1.40
2019,10,28,08,11,1.40
2019,10,28,08,12,1.40
2019,10,28,08,13,1.40
2019,10,28,08,14,1.40
2019,10,28,08,15,1.40
2019,10,28,08,16,1.40
2019,10,28,08,17,1.40
2019,10,28,08,18,1.40
2019,10,28,08,19,1.50
2019,10,28,08,20,1.50
2019,10,28,08,21,1.60
2019,10,28,08,22,1.60
2019,10,28,08,23,1.60
2019,10,28,08,24,1.60
2019,10,28,08,25,1.60
2019,10,28,08,26,1.60
2019,10,28,08,27,1.60
2019,10,28,08,28,1.70
2019,10,28,08,29,1.70
2019,10,28,08,30,1.70
2019,10,28,08,31,1.80
2019,10,28,08,32,1.80
2019,10,28,08,33,1.90
2019,10,28,08,34,1.90
2019,10,28,08,35,1.90
2019,10,28,08,36,2.00
2019,10,28,08,37,2.00
2019,10,28,08,38,2.10
2019,10,28,08,39,2.20
2019,10,28,08,40,2.30
2019,10,28,08,41,2.30
2019,10,28,08,42,2.40
2019,10,28,08,43,2.50
2019,10,28,08,44,2.60
2019,10,28,08,45,2.60
2019,10,28,08,46,2.70
2019,10,28,08,47,2.70
2019,10,28,08,48,2.80
2019,10,28,08,49,2.80
2019,10,28,08,50,2.90
2019,10,28,08,51,2.90
2019,10,28,08,52,3.00
2019,10,28,08,53,3.10
2019,10,28,08,54,3.20
2019,10,28,08,55,3.30
2019,10,28,08,56,3.50
2019,10,28,08,57,3.60
2019,10,28,08,58,3.70
2019,10,28,08,59,3.80
2019,10,28,09,00,3.90
2019,10,28,09,01,4.00
2019,10,28,09,02,4.10
2019,10,28,09,03,4.20
2019,10,28,09,04,4.30
2019,10,28,09,05,4.40
2019,10,28,09,06,4.50
2019,10,28,09,07,4.60
2019,10,28,09,08,4.70
2019,10,28,09,09,4.70
2019,10,28,09,10,4.80
2019,10,28,09,11,4.90
2019,10,28,09,12,4.90
2019,10,28,09,13,5.00
2019,10,28,09,14,5.10
2019,10,28,09,15,5.10
2019,10,28,09,16,5.20
2019,10,28,09,17,5.20
2019,10,28,09,18,5.30
2019,10,28,09,19,5.40
2019,10,28,09,20,5.50
2019,10,28,09,21,5.50
2019,10,28,09,22,5.60
2019,10,28,09,23,5.70
2019,10,28,09,24,5.80
2019,10,28,09,25,5.80
2019,10,28,09,26,5.90
2019,10,28,09,27,6.00
2019,10,28,09,28,6.10
2019,10,28,09,29,6.20
2019,10,28,09,30,6.40
2019,10,28,09,31,6.40
2019,10,28,09,32,6.50
2019,10,28,09,33,6.60
2019,10,28,09,34,6.80
2019,10,28,09,35,6.80
2019,10,28,09,36,6.90
2019,10,28,09,37,7.00
2019,10,28,09,38,7.00
2019,10,28,09,39,7.10
2019,10,28,09,40,7.20
2019,10,28,09,41,7.20
2019,10,28,09,42,7.30
2019,10,28,09,43,7.40
2019,10,28,09,44,7.40
2019,10,28,09,45,7.40
2019,10,28,09,46,7.40
2019,10,28,09,47,7.50
2019,10,28,09,48,7.50
2019,10,28,09,49,7.50
2019,10,28,09,50,7.50
2019,10,28,09,51,7.50
2019,10,28,09,52,7.50
2019,10,28,09,53,7.50
2019,10,28,09,54,7.50
2019,10,28,09,55,7.60
2019,10,28,09,56,7.60
2019,10,28,09,57,7.60
2019,10,28,09,58,7.70
2019,10,28,09,59,7.70
2019,10,28,10,00,7.70
2019,10,28,10,01,7.70
2019,10,28,10,02,7.80
2019,10,28,10,03,7.80
2019,10,28,10,04,7.80
2019,10,28,10,05,7.80
2019,10,28,10,06,7.90
2019,10,28,10,07,7.90
2019,10,28,10,08,7.90
2019,10,28,10,09,7.90
2019,10,28,10,10,7.90
2019,10,28,10,11,8.00
2019,10,28,10,12,8.00
2019,10,28,10,13,8.00
2019,10,28,10,14,8.00
2019,10,28,10,15,8.00
2019,10,28,10,16,8.00
2019,10,28,10,17,8.00
2019,10,28,10,18,8.10
2019,10,28,10,19,8.10
2019,10,28,10,20,8.10
2019,10,28,10,21,8.10
2019,10,28,10,22,8.10
2019,10,28,10,23,8.10
2019,10,28,10,24,8.10
2019,10,28,10,25,8.10
2019,10,28,10,26,8.10
2019,10,28,10,27,8.10
2019,10,28,10,28,8.10
2019,10,28,10,29,8.20
2019,10,28,10,30,8.20
2019,10,28,10,31,8.20
2019,10,28,10,32,8.20
2019,10,28,10,33,8.30
2019,10,28,10,34,8.30
2019,10,28,10,35,8.30
2019,10,28,10,36,8.30
2019,10,28,10,37,8.30
2019,10,28,10,38,8.30
2019,10,28,10,39,8.30
2019,10,28,10,40,8.30
2019,10,28,10,41,8.30
2019,10,28,10,42,8.30
2019,10,28,10,43,8.30
2019,10,28,10,44,8.40
2019,10,28,10,45,8.40
2019,10,28,10,46,8.40
2019,10,28,10,47,8.40
2019,10,28,10,48,8.40
2019,10,28,10,49,8.50
2019,10,28,10,50,8.50
2019,10,28,10,51,8.60
2019,10,28,10,52,8.60
2019,10,28,10,53,8.60
2019,10,28,10,54,8.60
2019,10,28,10,55,8.60
2019,10,28,10,56,8.60
2019,10,28,10,57,8.70
2019,10,28,10,58,8.70
2019,10,28,10,59,8.80
2019,10,28,11,00,8.80
2019,10,28,11,01,8.80
2019,10,28,11,02,8.80
2019,10,28,11,03,8.70
2019,10,28,11,04,8.70
2019,10,28,11,05,8.70
2019,10,28,11,06,8.80
2019,10,28,11,07,8.80
2019,10,28,11,08,8.80
2019,10,28,11,09,8.80
2019,10,28,11,10,8.80
2019,10,28,11,11,8.80
2019,10,28,11,12,8.80
2019,10,28,11,13,8.80
2019,10,28,11,14,8.80
2019,10,28,11,15,8.80
2019,10,28,11,16,8.80
2019,10,28,11,17,8.80
2019,10,28,11,18,8.80
2019,10,28,11,19,8.80
2019,10,28,11,20,8.80
2019,10,28,11,21,8.80
2019,10,28,11,22,8.80
2019,10,28,11,23,8.90
2019,10,28,11,24,8.90
2019,10,28,11,25,9.00
2019,10,28,11,26,9.00
2019,10,28,11,27,9.00
2019,10,28,11,28,9.00
2019,10,28,11,29,8.90
2019,10,28,11,30,8.90
2019,10,28,11,31,8.90
2019,10,28,11,32,9.00
2019,10,28,11,33,9.00
2019,10,28,11,34,9.10
2019,10,28,11,35,9.10
2019,10,28,11,36,9.10
2019,10,28,11,37,9.20
2019,10,28,11,38,9.20
2019,10,28,11,39,9.20
2019,10,28,11,40,9.10
2019,10,28,11,41,9.10
2019,10,28,11,42,9.00
2019,10,28,11,43,9.00
2019,10,28,11,44,9.00
2019,10,28,11,45,9.00
2019,10,28,11,46,9.10
2019,10,28,11,47,9.10
2019,10,28,11,48,9.10
2019,10,28,11,49,9.10
2019,10,28,11,50,9.10
2019,10,28,11,51,9.20
2019,10,28,11,52,9.20
2019,10,28,11,53,9.20
2019,10,28,11,54,9.30
2019,10,28,11,55,9.30
2019,10,28,11,56,9.30
2019,10,28,11,57,9.30
2019,10,28,11,58,9.20
2019,10,28,11,59,9.20
2019,10,28,12,00,9.10
2019,10,28,12,01,9.10
2019,10,28,12,02,9.10
2019,10,28,12,03,9.00
2019,10,28,12,04,9.00
2019,10,28,12,05,9.10
2019,10,28,12,06,9.10
2019,10,28,12,07,9.20
2019,10,28,12,08,9.30
2019,10,28,12,09,9.30
2019,10,28,12,10,9.30
2019,10,28,12,11,9.30
2019,10,28,12,12,9.30
2019,10,28,12,13,9.30
2019,10,28,12,14,9.40
2019,10,28,12,15,9.40
2019,10,28,12,16,9.50
2019,10,28,12,17,9.50
2019,10,28,12,18,9.60
2019,10,28,12,19,9.60
2019,10,28,12,20,9.50
2019,10,28,12,21,9.50
2019,10,28,12,22,9.40
2019,10,28,12,23,9.40
2019,10,28,12,24,9.40
2019,10,28,12,25,9.40
2019,10,28,12,26,9.40
2019,10,28,12,27,9.50
2019,10,28,12,28,9.50
2019,10,28,12,29,9.50
2019,10,28,12,30,9.40
2019,10,28,12,31,9.40
2019,10,28,12,32,9.50
2019,10,28,12,33,9.40
2019,10,28,12,34,9.40
2019,10,28,12,35,9.50
2019,10,28,12,36,9.50
2019,10,28,12,37,9.50
2019,10,28,12,38,9.60
2019,10,28,12,39,9.60
2019,10,28,12,40,9.60
2019,10,28,12,41,9.60
2019,10,28,12,42,9.50
2019,10,28,12,43,9.60
2019,10,28,12,44,9.50
2019,10,28,12,45,9.50
2019,10,28,12,46,9.40
2019,10,28,12,47,9.40
2019,10,28,12,48,9.40
2019,10,28,12,49,9.50
2019,10,28,12,50,9.60
2019,10,28,12,51,9.60
2019,10,28,12,52,9.70
2019,10,28,12,53,9.70
2019,10,28,12,54,9.70
2019,10,28,12,55,9.60
2019,10,28,12,56,9.60
2019,10,28,12,57,9.60
2019,10,28,12,58,9.60
2019,10,28,12,59,9.70
2019,10,28,13,00,9.70
2019,10,28,13,01,9.70
2019,10,28,13,02,9.70
2019,10,28,13,03,9.70
2019,10,28,13,04,9.70
2019,10,28,13,05,9.70
2019,10,28,13,06,9.70
2019,10,28,13,07,9.70
2019,10,28,13,08,9.70
2019,10,28,13,09,9.80
2019,10,28,13,10,9.80
2019,10,28,13,11,9.80
2019,10,28,13,12,9.80
2019,10,28,13,13,9.80
2019,10,28,13,14,9.80
2019,10,28,13,15,9.80
2019,10,28,13,16,9.70
2019,10,28,13,17,9.80
2019,10,28,13,18,9.80
2019,10,28,13,19,9.80
2019,10,28,13,20,9.80
2019,10,28,13,21,9.80
2019,10,28,13,22,9.80
2019,10,28,13,23,9.80
2019,10,28,13,24,9.80
2019,10,28,13,25,9.80
2019,10,28,13,26,9.80
2019,10,28,13,27,9.70
2019,10,28,13,28,9.70
2019,10,28,13,29,9.70
2019,10,28,13,30,9.80
2019,10,28,13,31,9.80
2019,10,28,13,32,9.90
2019,10,28,13,33,9.90
2019,10,28,13,34,10.00
2019,10,28,13,35,9.90
2019,10,28,13,36,9.90
2019,10,28,13,37,9.90
2019,10,28,13,38,9.80
2019,10,28,13,39,9.80
2019,10,28,13,40,9.80
2019,10,28,13,41,9.70
2019,10,28,13,42,9.70
2019,10,28,13,43,9.80
2019,10,28,13,44,9.80
2019,10,28,13,45,9.80
2019,10,28,13,46,9.80
2019,10,28,13,47,9.80
2019,10,28,13,48,9.80
2019,10,28,13,49,9.80
2019,10,28,13,50,9.90
2019,10,28,13,51,9.80
2019,10,28,13,52,9.80
2019,10,28,13,53,9.80
2019,10,28,13,54,9.80
2019,10,28,13,55,9.70
2019,10,28,13,56,9.70
2019,10,28,13,57,9.70
2019,10,28,13,58,9.70
2019,10,28,13,59,9.80
2019,10,28,14,00,9.90
2019,10,28,14,01,9.90
2019,10,28,14,02,10.00
2019,10,28,14,03,10.10
2019,10,28,14,04,10.10
2019,10,28,14,05,10.20
2019,10,28,14,06,10.20
2019,10,28,14,07,10.20
2019,10,28,14,08,10.20
2019,10,28,14,09,10.20
2019,10,28,14,10,10.20
2019,10,28,14,11,10.10
2019,10,28,14,12,10.10
2019,10,28,14,13,10.10
2019,10,28,14,14,10.00
2019,10,28,14,15,10.10
2019,10,28,14,16,10.10
2019,10,28,14,17,10.10
2019,10,28,14,18,10.10
2019,10,28,14,19,10.00
2019,10,28,14,20,10.00
2019,10,28,14,21,10.00
2019,10,28,14,22,10.00
2019,10,28,14,23,9.90
2019,10,28,14,24,9.90
2019,10,28,14,25,10.00
2019,10,28,14,26,10.00
2019,10,28,14,27,10.10
2019,10,28,14,28,10.20
2019,10,28,14,29,10.20
2019,10,28,14,30,10.20
2019,10,28,14,31,10.20
2019,10,28,14,32,10.20
2019,10,28,14,33,10.20
2019,10,28,14,34,10.00
2019,10,28,14,35,10.00
2019,10,28,14,36,9.90
2019,10,28,14,37,9.90
2019,10,28,14,38,9.90
2019,10,28,14,39,9.90
2019,10,28,14,40,9.90
2019,10,28,14,41,9.90
2019,10,28,14,42,9.90
2019,10,28,14,43,10.00
2019,10,28,14,44,10.00
2019,10,28,14,45,10.10
2019,10,28,14,46,10.10
2019,10,28,14,47,10.10
2019,10,28,14,48,10.10
2019,10,28,14,49,10.00
2019,10,28,14,50,10.00
2019,10,28,14,51,10.00
2019,10,28,14,52,10.00
2019,10,28,14,53,10.00
2019,10,28,14,54,9.90
2019,10,28,14,55,9.90
2019,10,28,14,56,9.80
2019,10,28,14,57,9.80
2019,10,28,14,58,9.70
2019,10,28,14,59,9.70
2019,10,28,15,00,9.70
2019,10,28,15,01,9.70
2019,10,28,15,02,9.70
2019,10,28,15,03,9.70
2019,10,28,15,04,9.80
2019,10,28,15,05,9.80
2019,10,28,15,06,9.80
2019,10,28,15,07,9.80
2019,10,28,15,08,9.80
2019,10,28,15,09,9.80
2019,10,28,15,10,9.80
2019,10,28,15,11,9.80
2019,10,28,15,12,9.80
2019,10,28,15,13,9.80
2019,10,28,15,14,9.80
2019,10,28,15,15,9.80
2019,10,28,15,16,9.80
2019,10,28,15,17,9.80
2019,10,28,15,18,9.80
2019,10,28,15,19,9.80
2019,10,28,15,20,9.80
2019,10,28,15,21,9.80
2019,10,28,15,22,9.70
2019,10,28,15,23,9.70
2019,10,28,15,24,9.70
2019,10,28,15,25,9.70
2019,10,28,15,26,9.70
2019,10,28,15,27,9.80
2019,10,28,15,28,9.80
2019,10,28,15,29,9.80
2019,10,28,15,30,9.80
2019,10,28,15,31,9.90
2019,10,28,15,32,9.90
2019,10,28,15,33,9.90
2019,10,28,15,34,9.80
2019,10,28,15,35,9.80
2019,10,28,15,36,9.80
2019,10,28,15,37,9.90
2019,10,28,15,38,9.90
2019,10,28,15,39,9.90
2019,10,28,15,40,9.90
2019,10,28,15,41,9.90
2019,10,28,15,42,9.90
2019,10,28,15,43,9.90
2019,10,28,15,44,9.90
2019,10,28,15,45,9.90
2019,10,28,15,46,9.90
2019,10,28,15,47,9.90
2019,10,28,15,48,9.90
2019,10,28,15,49,9.80
2019,10,28,15,50,9.80
2019,10,28,15,51,9.80
2019,10,28,15,52,9.80
2019,10,28,15,53,9.90
2019,10,28,15,54,9.90
2019,10,28,15,55,9.90
2019,10,28,15,56,9.80
2019,10,28,15,57,9.80
2019,10,28,15,58,9.80
2019,10,28,15,59,9.80
2019,10,28,16,00,9.80
2019,10,28,16,01,9.80
2019,10,28,16,02,9.70
2019,10,28,16,03,9.70
2019,10,28,16,04,9.70
2019,10,28,16,05,9.70
2019,10,28,16,06,9.70
2019,10,28,16,07,9.60
2019,10,28,16,08,9.60
2019,10,28,16,09,9.60
2019,10,28,16,10,9.60
2019,10,28,16,11,9.60
2019,10,28,16,12,9.60
2019,10,28,16,13,9.60
2019,10,28,16,14,9.60
2019,10,28,16,15,9.60
2019,10,28,16,16,9.70
2019,10,28,16,17,9.70
2019,10,28,16,18,9.70
2019,10,28,16,19,9.60
2019,10,28,16,20,9.60
2019,10,28,16,21,9.60
2019,10,28,16,22,9.60
2019,10,28,16,23,9.60
2019,10,28,16,24,9.60
2019,10,28,16,25,9.50
2019,10,28,16,26,9.50
2019,10,28,16,27,9.50
2019,10,28,16,28,9.50
2019,10,28,16,29,9.40
2019,10,28,16,30,9.40
2019,10,28,16,31,9.40
2019,10,28,16,32,9.40
2019,10,28,16,33,9.40
2019,10,28,16,34,9.40
2019,10,28,16,35,9.40
2019,10,28,16,36,9.40
2019,10,28,16,37,9.40
2019,10,28,16,38,9.40
2019,10,28,16,39,9.40
2019,10,28,16,40,9.50
2019,10,28,16,41,9.50
2019,10,28,16,42,9.50
2019,10,28,16,43,9.50
2019,10,28,16,44,9.50
2019,10,28,16,45,9.50
2019,10,28,16,46,9.50
2019,10,28,16,47,9.50
2019,10,28,16,48,9.50
2019,10,28,16,49,9.40
2019,10,28,16,50,9.40
2019,10,28,16,51,9.40
2019,10,28,16,52,9.40
2019,10,28,16,53,9.40
2019,10,28,16,54,9.40
2019,10,28,16,55,9.40
2019,10,28,16,56,9.40
2019,10,28,16,57,9.40
2019,10,28,16,58,9.40
2019,10,28,16,59,9.30
2019,10,28,17,00,9.30
2019,10,28,17,01,9.30
2019,10,28,17,02,9.30
2019,10,28,17,03,9.30
2019,10,28,17,04,9.30
2019,10,28,17,05,9.30
2019,10,28,17,06,9.30
2019,10,28,17,07,9.30
2019,10,28,17,08,9.30
2019,10,28,17,09,9.30
2019,10,28,17,10,9.30
2019,10,28,17,11,9.30
2019,10,28,17,12,9.30
2019,10,28,17,13,9.30
2019,10,28,17,14,9.30
2019,10,28,17,15,9.30
2019,10,28,17,16,9.30
2019,10,28,17,17,9.20
2019,10,28,17,18,9.20
2019,10,28,17,19,9.20
2019,10,28,17,20,9.20
2019,10,28,17,21,9.20
2019,10,28,17,22,9.20
2019,10,28,17,23,9.10
2019,10,28,17,24,9.10
2019,10,28,17,25,9.10
2019,10,28,17,26,9.10
2019,10,28,17,27,9.10
2019,10,28,17,28,9.10
2019,10,28,17,29,9.10
2019,10,28,17,30,9.10
2019,10,28,17,31,9.10
2019,10,28,17,32,9.00
2019,10,28,17,33,9.00
2019,10,28,17,34,9.00
2019,10,28,17,35,9.00
2019,10,28,17,36,8.90
2019,10,28,17,37,8.90
2019,10,28,17,38,8.90
2019,10,28,17,39,8.90
2019,10,28,17,40,8.90
2019,10,28,17,41,8.90
2019,10,28,17,42,8.90
2019,10,28,17,43,8.80
2019,10,28,17,44,8.80
2019,10,28,17,45,8.80
2019,10,28,17,46,8.80
2019,10,28,17,47,8.70
2019,10,28,17,48,8.70
2019,10,28,17,49,8.70
2019,10,28,17,50,8.70
2019,10,28,17,51,8.70
2019,10,28,17,52,8.70
2019,10,28,17,53,8.60
2019,10,28,17,54,8.60
2019,10,28,17,55,8.60
2019,10,28,17,56,8.60
2019,10,28,17,57,8.60
2019,10,28,17,58,8.60
2019,10,28,17,59,8.50
2019,10,28,18,00,8.50
2019,10,28,18,01,8.50
2019,10,28,18,02,8.40
2019,10,28,18,03,8.40
2019,10,28,18,04,8.40